JAS-2 (FO-29) (24278 NORAD) Tracking and Keplerian Element Data

This shows tracking and keplerian element data for the satellite.

Feedback or suggestion? Click here.




ElementValue
Catalog24278
NameJAS-2 (FO-29)
Epoch Orbit40606
Epoch Day35.20864815
Epoch Year2025
RAAN305.5238
Inclination98.588
Eccentricity0.0349218
Argument of Perigee307.4706
Mean Anonmoly49.5143
Mean Motion13.5323588
Decay Rate6.9E-07
L11 24278U 96046B 25035.20864815 .00000069 00000+0 10935-3 0 9992
L22 24278 98.5880 305.5238 0349218 307.4706 49.5143 13.53235880406063



Live tracking and technical data element details for JAS-2 (FO-29) (NORAD 24278). JAS-2 (FO-29) can be tracked NOW for your location showing map with azimuth and elevation plus other details from your city location.







IsCatalogInMostPopularTable: catalog: 24278, numindb: 576
Update: records affected: 1



GetName: 24278 JAS-2 (FO-29)

Hit Count: updated at: Sat, 06 Dec 2025 13:24:09 GMT